Estevan Point, British Columbia

2:21 AM PDT on June 28, 2017 (GMT -0700)
Estevan Point

Weather History for CWEB - January, 2013

Change the Weather History Date:

Sunday, January 27, 2013

  Actual Average Record
Temperature  
Mean Temperature 40 °F -  
Max Temperature 42 °F - - ()
Min Temperature 38 °F - - ()
Degree Days  
Heating Degree Days 25    
Moisture  
Dew Point -    
Average Humidity    
Maximum Humidity    
Minimum Humidity    
Precipitation  
Precipitation 0.01 in - - ()
Sea Level Pressure  
Sea Level Pressure 30.00 in    
Wind  
Wind Speed 7 mph ()    
Max Wind Speed 26 mph    
Max Gust Speed -    
T = Trace of Precipitation, MM = Missing Value Source: Averaged Metar Reports

Daily Weather History Graph

Daily Weather History Graph

Search for Another Location

Airport or City:

Trip Planner

Search our weather history database for the weather conditions in past years. The results will help you decide how hot, cold, wet, or windy it might be!

Date:

Astronomy

Jan. 27, 2013 Rise Set
Actual Time 8:03 AM PST 5:14 PM PST
Civil Twilight 7:29 AM PST 5:49 PM PST
Nautical Twilight 6:50 AM PST 6:28 PM PST
Astronomical Twilight 6:12 AM PST 7:05 PM PST
Moon 6:25 PM PST (1/27) 7:51 AM PST (1/27)
Length of Visible Light 10h 20m
Length of Day
9h 10m
Full, 100% of the Moon is Illuminated
Jan 27
Full
Feb 3
Last Quarter
Feb 9
New
Feb 17
First Quarter
Feb 25
Full

Hourly Weather History & Observations

Time (PST) Temp. Windchill Dew Point Humidity Pressure Visibility Wind Dir Wind Speed Gust Speed Precip Events Conditions
12:00 AM 39.0 °F 34.0 °F - N/A% 30.02 in - NNE 6.9 mph - N/A   Unknown
1:00 AM 39 °F - - % 30.02 in - SE 3.5 mph - -  
1:00 AM 38.8 °F 36.5 °F - N/A% 30.02 in - SE 3.5 mph - 0.01 in   Unknown
2:00 AM 39.4 °F - - N/A% 30.02 in - South 2.3 mph - 0.01 in   Unknown
3:00 AM 39.4 °F - - N/A% 30.01 in - ESE 2.3 mph - 0.01 in   Unknown
4:00 AM 39.4 °F 36.1 °F - N/A% 30.00 in - East 4.6 mph - 0.01 in   Unknown
5:00 AM 39.7 °F 35.6 °F - N/A% 30.00 in - NE 5.8 mph - 0.03 in   Unknown
6:00 AM 40.8 °F 36.9 °F - N/A% 29.99 in - WNW 5.8 mph - 0.06 in   Unknown
7:00 AM 40 °F - - % 29.99 in - North 4.6 mph - -  
7:00 AM 39.7 °F 36.5 °F - N/A% 29.99 in - North 4.6 mph - N/A   Unknown
8:00 AM 40.5 °F 32.8 °F - N/A% 29.99 in - West 13.8 mph - 0.04 in   Unknown
9:00 AM 40.8 °F 35.0 °F - N/A% 29.99 in - WNW 9.2 mph - 0.02 in   Unknown
10:00 AM 40.8 °F 37.8 °F - N/A% 30.00 in - West 4.6 mph - 0.05 in   Unknown
11:00 AM 41.4 °F - - N/A% 30.00 in - ENE 2.3 mph - 0.06 in   Unknown
12:00 PM 41.7 °F 36.7 °F - N/A% 29.99 in - West 8.1 mph - 0.04 in   Unknown
1:00 PM 42 °F - - % 29.98 in - WSW 11.5 mph - -  
1:00 PM 42.4 °F 36.1 °F - N/A% 29.98 in - WSW 11.5 mph - 0.03 in   Unknown
2:00 PM 42.1 °F 37.1 °F - N/A% 29.98 in - NNW 8.1 mph - 0.05 in   Unknown
3:00 PM 42.4 °F 37.0 °F - N/A% 29.99 in - WNW 9.2 mph - N/A   Unknown
4:00 PM 42.3 °F 34.8 °F - N/A% 29.99 in - WNW 15.0 mph - N/A   Unknown
6:00 PM 41.0 °F 33.5 °F - N/A% 30.00 in - WNW 13.8 mph - N/A   Unknown
7:00 PM 42 °F - - % 30.01 in - NW 13.8 mph - -  
7:00 PM 41.5 °F 34.2 °F - N/A% 30.01 in - NW 13.8 mph - N/A   Unknown
8:00 PM 42.3 °F 33.6 °F - N/A% 30.02 in - WNW 19.6 mph - N/A   Unknown
9:00 PM 40.5 °F 32.5 °F - N/A% 30.01 in - NW 15.0 mph - N/A   Unknown
10:00 PM 42.8 °F 32.9 °F - N/A% 30.03 in - West 26.5 mph - N/A   Unknown
11:00 PM 42.3 °F 34.4 °F - N/A% 30.04 in - NW 16.1 mph - N/A   Unknown